Station Historical Data
Daily Summary for January 14, 2018 Units:  English    Metric   Both
« Previous Day
Next Day »
Daily Weekly Monthly Yearly Custom
  High: Low: Average:
Temperature: 25.2 °F 15.4 °F 20.4 °F
Dew Point: 9.7 °F 5.0 °F 6.9 °F
Humidity: 65 % 44 % 56 %
Wind Speed: 8.0 mph 0.0 mph 1.9 mph
Wind Gust: 13.0 mph - -
Wind:- - WSW
Pressure: 30.74 in 30.53 in -
Precipitation: 0.00 in    
Historical Graphs
 
 
Tabular Data for January 14, 2018
Time Temperature Dew Point Pressure Wind Wind Speed Wind Gust Humidity Rainfall Rate (Hourly)
00:00 21.4 °F 9.7 °F 30.53 in West 4.0 mph 7.0 mph 60 % 0.00 in
00:08 21.3 °F 9.6 °F 30.53 in Calm   7.0 mph 60 % 0.00 in
00:38 20.8 °F 8.7 °F 30.54 in North 4.0 mph 9.0 mph 59 % 0.00 in
00:44 20.7 °F 9.0 °F 30.54 in WSW 1.0 mph 9.0 mph 60 % 0.00 in
00:51 20.6 °F 8.6 °F 30.54 in North 4.0 mph 10.0 mph 59 % 0.00 in
00:59 20.4 °F 8.4 °F 30.54 in WNW 6.0 mph 10.0 mph 59 % 0.00 in
01:05 20.3 °F 8.7 °F 30.54 in Calm   10.0 mph 60 % 0.00 in
01:13 20.2 °F 8.6 °F 30.55 in Calm   10.0 mph 60 % 0.00 in
01:21 20.0 °F 8.0 °F 30.55 in NNE 2.0 mph 11.0 mph 59 % 0.00 in
01:28 19.8 °F 8.2 °F 30.56 in West 3.0 mph 11.0 mph 60 % 0.00 in
01:37 19.6 °F 8.0 °F 30.56 in NNE 3.0 mph 11.0 mph 60 % 0.00 in
02:15 19.1 °F 7.5 °F 30.58 in WNW 3.0 mph 9.0 mph 60 % 0.00 in
02:29 18.8 °F 7.2 °F 30.58 in WNW 1.0 mph 9.0 mph 60 % 0.00 in
02:36 18.7 °F 7.1 °F 30.58 in NW 4.0 mph 9.0 mph 60 % 0.00 in
02:44 18.6 °F 7.0 °F 30.58 in West 4.0 mph 9.0 mph 60 % 0.00 in
02:57 18.4 °F 6.9 °F 30.59 in WNW 5.0 mph 9.0 mph 60 % 0.00 in
03:11 18.2 °F 6.7 °F 30.59 in North 2.0 mph 10.0 mph 60 % 0.00 in
03:19 18.1 °F 6.6 °F 30.59 in WNW 3.0 mph 10.0 mph 60 % 0.00 in
03:24 18.0 °F 6.8 °F 30.59 in NNE 4.0 mph 9.0 mph 61 % 0.00 in
04:01 17.6 °F 6.5 °F 30.60 in NW 3.0 mph 10.0 mph 61 % 0.00 in
04:23 17.3 °F 6.5 °F 30.60 in NW 5.0 mph 13.0 mph 62 % 0.00 in
04:31 17.1 °F 6.4 °F 30.60 in WNW 6.0 mph 9.0 mph 62 % 0.00 in
04:56 16.8 °F 6.4 °F 30.61 in NW 4.0 mph 7.0 mph 63 % 0.00 in
05:04 16.8 °F 6.4 °F 30.61 in NW 5.0 mph 9.0 mph 63 % 0.00 in
05:10 16.8 °F 6.4 °F 30.61 in North 1.0 mph 9.0 mph 63 % 0.00 in
05:40 16.5 °F 6.1 °F 30.63 in West 6.0 mph 9.0 mph 63 % 0.00 in
05:50 16.4 °F 6.0 °F 30.63 in WNW 4.0 mph 9.0 mph 63 % 0.00 in
06:02 16.2 °F 6.2 °F 30.64 in NW 3.0 mph 8.0 mph 64 % 0.00 in
06:10 16.1 °F 5.8 °F 30.65 in NW 3.0 mph 8.0 mph 63 % 0.00 in
06:28 15.9 °F 5.9 °F 30.65 in North 2.0 mph 8.0 mph 64 % 0.00 in
06:45 15.8 °F 5.8 °F 30.66 in North 5.0 mph 9.0 mph 64 % 0.00 in
06:59 15.7 °F 5.7 °F 30.66 in North 3.0 mph 8.0 mph 64 % 0.00 in
07:05 15.7 °F 5.7 °F 30.66 in NW 2.0 mph 8.0 mph 64 % 0.00 in
07:14 15.5 °F 5.5 °F 30.66 in North 5.0 mph 8.0 mph 64 % 0.00 in
07:27 15.4 °F 5.4 °F 30.67 in WNW 3.0 mph 8.0 mph 64 % 0.00 in
07:35 15.4 °F 5.8 °F 30.67 in NW 3.0 mph 8.0 mph 65 % 0.00 in
07:52 15.4 °F 5.4 °F 30.68 in WNW 5.0 mph 10.0 mph 64 % 0.00 in
08:00 15.5 °F 5.5 °F 30.68 in ENE 1.0 mph 10.0 mph 64 % 0.00 in
08:24 15.7 °F 5.4 °F 30.69 in NW 1.0 mph 10.0 mph 63 % 0.00 in
08:42 16.1 °F 5.4 °F 30.70 in NW 4.0 mph 12.0 mph 62 % 0.00 in
08:47 16.3 °F 5.6 °F 30.70 in NW 1.0 mph 9.0 mph 62 % 0.00 in
08:59 16.6 °F 5.5 °F 30.71 in NW 1.0 mph 9.0 mph 61 % 0.00 in
09:08 16.8 °F 5.3 °F 30.72 in West 1.0 mph 8.0 mph 60 % 0.00 in
09:14 16.9 °F 5.4 °F 30.72 in WNW 5.0 mph 7.0 mph 60 % 0.00 in
09:20 17.1 °F 5.3 °F 30.73 in NW 4.0 mph 9.0 mph 59 % 0.00 in
09:31 17.4 °F 5.2 °F 30.73 in NW 8.0 mph 9.0 mph 58 % 0.00 in
09:54 17.9 °F 5.2 °F 30.73 in NW 4.0 mph 10.0 mph 57 % 0.00 in
10:02 18.1 °F 5.0 °F 30.74 in NW 5.0 mph 10.0 mph 56 % 0.00 in
10:09 18.3 °F 5.2 °F 30.73 in NW 6.0 mph 10.0 mph 56 % 0.00 in
10:14 18.5 °F 5.4 °F 30.73 in West 7.0 mph 10.0 mph 56 % 0.00 in
10:20 18.6 °F 5.1 °F 30.73 in NW 2.0 mph 9.0 mph 55 % 0.00 in
10:32 19.1 °F 5.6 °F 30.73 in WNW 4.0 mph 8.0 mph 55 % 0.00 in
10:38 19.3 °F 5.8 °F 30.73 in NW 3.0 mph 8.0 mph 55 % 0.00 in
10:45 19.5 °F 5.9 °F 30.73 in NW 1.0 mph 8.0 mph 55 % 0.00 in
10:55 19.7 °F 6.1 °F 30.72 in SW 6.0 mph 7.0 mph 55 % 0.00 in
11:07 20.0 °F 6.0 °F 30.72 in WNW 1.0 mph 8.0 mph 54 % 0.00 in
11:14 20.1 °F 6.5 °F 30.71 in WNW 2.0 mph 8.0 mph 55 % 0.00 in
11:20 20.5 °F 6.9 °F 30.71 in NW 1.0 mph 8.0 mph 55 % 0.00 in
11:27 20.8 °F 6.3 °F 30.70 in NNE 1.0 mph 7.0 mph 53 % 0.00 in
11:40 21.1 °F 6.6 °F 30.70 in NNE 3.0 mph 7.0 mph 53 % 0.00 in
12:02 22.0 °F 6.6 °F 30.69 in Calm   8.0 mph 51 % 0.00 in
12:09 22.0 °F 6.6 °F 30.69 in WNW 1.0 mph 8.0 mph 51 % 0.00 in
12:17 22.0 °F 7.0 °F 30.69 in NE 1.0 mph 8.0 mph 52 % 0.00 in
12:23 22.3 °F 7.3 °F 30.69 in NW 2.0 mph 8.0 mph 52 % 0.00 in
12:31 22.4 °F 6.9 °F 30.68 in West 1.0 mph 6.0 mph 51 % 0.00 in
12:43 22.7 °F 7.2 °F 30.68 in NNE 2.0 mph 7.0 mph 51 % 0.00 in
12:50 22.9 °F 6.5 °F 30.68 in North 3.0 mph 7.0 mph 49 % 0.00 in
12:56 23.2 °F 6.8 °F 30.68 in ESE 1.0 mph 7.0 mph 49 % 0.00 in
13:14 23.6 °F 7.1 °F 30.67 in NW 1.0 mph 7.0 mph 49 % 0.00 in
13:20 23.8 °F 6.9 °F 30.67 in West 1.0 mph 8.0 mph 48 % 0.00 in
13:30 23.8 °F 6.4 °F 30.67 in NW 7.0 mph 8.0 mph 47 % 0.00 in
13:37 23.9 °F 6.5 °F 30.67 in Calm   7.0 mph 47 % 0.00 in
13:51 24.2 °F 6.3 °F 30.66 in East 1.0 mph 12.0 mph 46 % 0.00 in
14:02 24.7 °F 6.7 °F 30.66 in Calm   12.0 mph 46 % 0.00 in
14:11 24.6 °F 6.1 °F 30.65 in Calm   6.0 mph 45 % 0.00 in
14:20 24.5 °F 6.5 °F 30.65 in WNW 3.0 mph 7.0 mph 46 % 0.00 in
14:28 24.6 °F 6.6 °F 30.66 in WNW 1.0 mph 7.0 mph 46 % 0.00 in
14:38 24.7 °F 6.7 °F 30.66 in Calm   7.0 mph 46 % 0.00 in
14:44 24.8 °F 6.3 °F 30.66 in ENE 3.0 mph 7.0 mph 45 % 0.00 in
14:51 24.9 °F 6.4 °F 30.66 in WNW 3.0 mph 7.0 mph 45 % 0.00 in
15:03 25.1 °F 6.6 °F 30.66 in Calm   7.0 mph 45 % 0.00 in
15:09 25.2 °F 6.7 °F 30.65 in WNW 5.0 mph 7.0 mph 45 % 0.00 in
15:20 25.2 °F 6.2 °F 30.66 in Calm   7.0 mph 44 % 0.00 in
15:26 25.2 °F 6.2 °F 30.66 in NE 1.0 mph 6.0 mph 44 % 0.00 in
15:32 25.2 °F 6.2 °F 30.66 in NW 2.0 mph 6.0 mph 44 % 0.00 in
15:40 25.1 °F 6.6 °F 30.66 in NW 2.0 mph 5.0 mph 45 % 0.00 in
16:00 25.2 °F 6.2 °F 30.67 in East 2.0 mph 5.0 mph 44 % 0.00 in
16:11 25.1 °F 6.1 °F 30.67 in Calm   5.0 mph 44 % 0.00 in
16:18 25.0 °F 6.5 °F 30.67 in Calm   5.0 mph 45 % 0.00 in
16:24 24.9 °F 6.4 °F 30.67 in Calm   5.0 mph 45 % 0.00 in
16:33 24.7 °F 5.7 °F 30.67 in Calm   7.0 mph 44 % 0.00 in
16:39 24.6 °F 6.1 °F 30.67 in WNW 2.0 mph 7.0 mph 45 % 0.00 in
16:46 24.5 °F 5.5 °F 30.67 in Calm   5.0 mph 44 % 0.00 in
16:51 24.4 °F 6.0 °F 30.67 in Calm   5.0 mph 45 % 0.00 in
16:57 24.2 °F 6.3 °F 30.67 in NW 2.0 mph 4.0 mph 46 % 0.00 in
17:04 24.1 °F 6.2 °F 30.66 in Calm   4.0 mph 46 % 0.00 in
17:20 23.4 °F 6.0 °F 30.66 in Calm   4.0 mph 47 % 0.00 in
17:35 23.1 °F 6.2 °F 30.66 in Calm   5.0 mph 48 % 0.00 in
17:44 23.1 °F 6.2 °F 30.66 in North 2.0 mph 5.0 mph 48 % 0.00 in
17:51 22.9 °F 6.5 °F 30.66 in Calm   4.0 mph 49 % 0.00 in
18:06 22.5 °F 7.0 °F 30.66 in NW 2.0 mph 6.0 mph 51 % 0.00 in
18:12 22.4 °F 6.9 °F 30.66 in WNW 2.0 mph 6.0 mph 51 % 0.00 in
18:25 22.1 °F 7.1 °F 30.67 in Calm   5.0 mph 52 % 0.00 in
18:45 21.6 °F 7.1 °F 30.68 in Calm   3.0 mph 53 % 0.00 in
18:51 21.5 °F 7.4 °F 30.68 in Calm   4.0 mph 54 % 0.00 in
18:57 21.5 °F 7.4 °F 30.68 in Calm   4.0 mph 54 % 0.00 in
19:18 21.0 °F 7.8 °F 30.69 in Calm   5.0 mph 56 % 0.00 in
19:23 20.9 °F 7.7 °F 30.70 in Calm   5.0 mph 56 % 0.00 in
19:55 20.3 °F 7.9 °F 30.70 in Calm   3.0 mph 58 % 0.00 in
20:03 20.2 °F 7.8 °F 30.70 in Calm   3.0 mph 58 % 0.00 in
20:09 19.9 °F 7.5 °F 30.70 in Calm   3.0 mph 58 % 0.00 in
20:17 19.8 °F 7.4 °F 30.70 in Calm   2.0 mph 58 % 0.00 in
20:29 19.6 °F 7.6 °F 30.70 in Calm   2.0 mph 59 % 0.00 in
20:42 19.4 °F 7.8 °F 30.69 in Calm   2.0 mph 60 % 0.00 in
20:52 19.2 °F 7.6 °F 30.68 in Calm   2.0 mph 60 % 0.00 in
20:59 19.2 °F 8.0 °F 30.68 in Calm   2.0 mph 61 % 0.00 in
21:16 19.2 °F 8.3 °F 30.68 in Calm   2.0 mph 62 % 0.00 in
21:24 19.1 °F 8.3 °F 30.68 in Calm   3.0 mph 62 % 0.00 in
21:31 19.2 °F 8.7 °F 30.68 in Calm   3.0 mph 63 % 0.00 in
21:38 19.4 °F 8.5 °F 30.69 in Calm   3.0 mph 62 % 0.00 in
21:48 19.7 °F 8.8 °F 30.69 in Calm   3.0 mph 62 % 0.00 in
22:06 19.8 °F 8.6 °F 30.70 in Calm   2.0 mph 61 % 0.00 in
22:13 19.8 °F 8.6 °F 30.71 in Calm   2.0 mph 61 % 0.00 in
22:20 19.8 °F 8.6 °F 30.70 in Calm   1.0 mph 61 % 0.00 in
22:32 19.5 °F 9.0 °F 30.69 in Calm   2.0 mph 63 % 0.00 in
22:46 19.4 °F 8.9 °F 30.69 in Calm   2.0 mph 63 % 0.00 in
22:52 19.5 °F 9.0 °F 30.69 in Calm   3.0 mph 63 % 0.00 in
22:57 19.5 °F 9.0 °F 30.69 in Calm   3.0 mph 63 % 0.00 in
23:25 19.1 °F 9.0 °F 30.69 in Calm   1.0 mph 64 % 0.00 in
23:33 18.8 °F 8.7 °F 30.69 in Calm   1.0 mph 64 % 0.00 in
23:39 18.6 °F 8.8 °F 30.69 in Calm   1.0 mph 65 % 0.00 in
MarylandWx.com
Compliments of Weather Underground - 5.75 mb